Mitchell, SD

10:07 PM CDT on October 15, 2019 (GMT -0500)
Mitchell Municipal

Weather History for KMHE - June, 2019

Change the Weather History Date:

Tuesday, June 4, 2019

  Actual Average Record
Temperature  
Mean Temperature 77 °F 66 °F  
Max Temperature 89 °F 76 °F 101 °F (1933)
Min Temperature 64 °F 55 °F 35 °F (1951)
Degree Days  
Heating Degree Days 0 2  
Month to date heating degree days 4 11  
Since 1 June heating degree days 4 11  
Since 1 July heating degree days 7983 7221  
Cooling Degree Days 12 3  
Month to date cooling degree days 18 11  
Year to date cooling degree days 37 51  
Since 1 June cooling degree days 18 11  
Growing Degree Days 26 (Base 50)    
Moisture  
Dew Point 63 °F    
Average Humidity 67    
Maximum Humidity 93    
Minimum Humidity 41    
Precipitation  
Precipitation 0.00 in 0.15 in 1.80 in (1908)
Month to date precipitation 0.01 0.59  
Year to date precipitation 11.85 7.32  
Snow  
Snow 0.00 in - 0.00 in ()
Month to date snowfall 0.0  
Since 1 June snowfall 0.0  
Since 1 July snowfall 67.6  
Snow Depth 0.00 in    
Sea Level Pressure  
Sea Level Pressure 29.69 in    
Wind  
Wind Speed 7 mph (SSW)    
Max Wind Speed 18 mph    
Max Gust Speed 26 mph    
Visibility 9 miles    
Events Thunderstorm    
T = Trace of Precipitation, MM = Missing Value Source: NWS Daily Summary

Daily Weather History Graph

Daily Weather History Graph

Search for Another Location

Airport or City:

Astronomy

Jun. 04, 2019 Rise Set
Actual Time 5:51 AM CDT 9:09 PM CDT
Civil Twilight 5:16 AM CDT 9:44 PM CDT
Nautical Twilight 4:30 AM CDT 10:31 PM CDT
Astronomical Twilight 3:34 AM CDT 11:27 PM CDT
Moon 7:02 AM CDT (6/4) 10:39 PM CDT (6/4)
Length of Visible Light 16h 28m
Length of Day
15h 17m
New Moon, 2% of the Moon is Illuminated
Jun 4
New Moon
Jun 10
First Quarter
Jun 17
Full
Jun 25
Last Quarter
Jul 2
New

Hourly Weather History & Observations

Time (CDT) Temp. Heat Index Dew Point Humidity Pressure Visibility Wind Dir Wind Speed Gust Speed Precip Events Conditions
12:53 AM 68.0 °F - 63.0 °F 84% 29.79 in 10.0 mi South 17.3 mph 25.3 mph N/A   Clear
1:53 AM 66.9 °F - 63.0 °F 87% 29.75 in 9.0 mi South 11.5 mph - N/A   Clear
2:53 AM 66.0 °F - 62.1 °F 87% 29.73 in 7.0 mi SSE 9.2 mph - N/A   Clear
3:53 AM 64.9 °F - 62.1 °F 90% 29.73 in 7.0 mi SSE 9.2 mph - N/A   Clear
4:53 AM 64.0 °F - 61.0 °F 90% 29.72 in 6.0 mi SSE 8.1 mph - N/A   Clear
5:53 AM 64.0 °F - 61.0 °F 90% 29.70 in 5.0 mi SSE 9.2 mph - N/A   Clear
6:53 AM 64.0 °F - 61.0 °F 90% 29.70 in 5.0 mi South 6.9 mph - N/A   Clear
7:53 AM 66.9 °F - 63.0 °F 87% 29.70 in 8.0 mi SSE 6.9 mph - N/A   Clear
8:53 AM 71.1 °F - 64.0 °F 78% 29.71 in 10.0 mi SSE 5.8 mph - N/A   Clear
9:53 AM 71.1 °F - 64.0 °F 78% 29.70 in 10.0 mi South 8.1 mph - N/A   Clear
10:53 AM 80.1 °F 82.3 °F 66.9 °F 64% 29.69 in 10.0 mi South 10.4 mph - N/A   Clear
11:53 AM 84.0 °F 84.5 °F 62.1 °F 47% 29.68 in 10.0 mi SW 5.8 mph - N/A   Clear
12:53 PM 84.9 °F 85.0 °F 61.0 °F 44% 29.68 in 10.0 mi SW 8.1 mph - N/A   Clear
1:53 PM 87.1 °F 87.5 °F 62.1 °F 43% 29.67 in 10.0 mi West 3.5 mph - N/A   Clear
2:53 PM 87.1 °F 87.8 °F 63.0 °F 44% 29.65 in 10.0 mi SW 8.1 mph - N/A   Clear
3:53 PM 89.1 °F 90.0 °F 63.0 °F 42% 29.64 in 10.0 mi WSW 10.4 mph - N/A   Clear
4:53 PM 89.1 °F 90.3 °F 64.0 °F 43% 29.63 in 10.0 mi West 11.5 mph - N/A   Clear
5:53 PM 87.1 °F 89.2 °F 66.0 °F 49% 29.63 in 10.0 mi NW 8.1 mph - N/A   Clear
6:53 PM 82.0 °F 83.8 °F 64.9 °F 56% 29.64 in 10.0 mi NNW 9.2 mph 19.6 mph N/A   Clear
7:53 PM 79.0 °F - 62.1 °F 56% 29.65 in 10.0 mi Calm Calm - N/A   Clear
8:33 PM 77.0 °F - 62.1 °F 60% 29.70 in 10.0 mi WNW 5.8 mph - N/A Thunderstorm Partly Cloudy
8:53 PM 75.9 °F - 62.1 °F 62% 29.69 in 10.0 mi SW 4.6 mph - N/A   Clear
9:53 PM 73.9 °F - 60.1 °F 62% 29.71 in 10.0 mi North 5.8 mph - N/A   Clear
10:53 PM 71.1 °F - 61.0 °F 70% 29.71 in 10.0 mi ENE 4.6 mph - N/A   Clear
11:53 PM 69.1 °F - 60.1 °F 73% 29.72 in 10.0 mi WSW 4.6 mph - N/A   Clear